Mobridge, SD

11:33 PM CDT on June 24, 2017 (GMT -0500)
Mobridge Municipal

Weather History for KMBG - April, 2014

Change the Weather History Date:

Tuesday, April 22, 2014

  Actual Average Record
Temperature  
Mean Temperature 54 °F 48 °F  
Max Temperature 71 °F 61 °F 93 °F (1990)
Min Temperature 36 °F 35 °F 14 °F (1927)
Degree Days  
Heating Degree Days 11 17  
Month to date heating degree days 535 471  
Since 1 July heating degree days 8219 7473  
Cooling Degree Days 0 0  
Month to date cooling degree days 0 0  
Year to date cooling degree days 0 0  
Growing Degree Days 2 (Base 50)    
Moisture  
Dew Point 30 °F    
Average Humidity 49    
Maximum Humidity 75    
Minimum Humidity 22    
Precipitation  
Precipitation T in 0.06 in 1.13 in (1968)
Month to date precipitation 0.31 0.92  
Year to date precipitation 1.43 2.55  
Snow  
Snow 0.00 in - - ()
Month to date snowfall 3.5  
Since 1 July snowfall 44.3  
Snow Depth 0.00 in    
Sea Level Pressure  
Sea Level Pressure 29.92 in    
Wind  
Wind Speed 20 mph (SE)    
Max Wind Speed 40 mph    
Max Gust Speed 51 mph    
Visibility 10 miles    
Events Rain    
T = Trace of Precipitation, MM = Missing Value Source: NWS Daily Summary

Daily Weather History Graph

Daily Weather History Graph

Search for Another Location

Airport or City:

Trip Planner

Search our weather history database for the weather conditions in past years. The results will help you decide how hot, cold, wet, or windy it might be!

Date:

Astronomy

Apr. 22, 2014 Rise Set
Actual Time 6:43 AM CDT 8:37 PM CDT
Civil Twilight 6:12 AM CDT 9:08 PM CDT
Nautical Twilight 5:33 AM CDT 9:47 PM CDT
Astronomical Twilight 4:51 AM CDT 10:30 PM CDT
Moon 2:55 AM CDT (4/22) 1:20 PM CDT (4/22)
Length of Visible Light 14h 56m
Length of Day
13h 53m
Last Quarter, 46% of the Moon is Illuminated
Apr 22
Last Quarter
Apr 29
New
May 6
First Quarter
May 14
Full
May 21
Last Quarter

Hourly Weather History & Observations

Time (CDT) Temp. Windchill Dew Point Humidity Pressure Visibility Wind Dir Wind Speed Gust Speed Precip Events Conditions
12:52 AM 37.0 °F 33.3 °F 28.9 °F 73% 30.13 in 10.0 mi SE 4.6 mph - N/A   Clear
1:52 AM 39.9 °F 35.1 °F 28.9 °F 65% 30.11 in 10.0 mi ESE 6.9 mph - N/A   Clear
2:52 AM 39.0 °F 34.8 °F 28.9 °F 67% 30.10 in 10.0 mi SE 5.8 mph - N/A   Clear
3:52 AM 37.0 °F 31.6 °F 28.9 °F 73% 30.09 in 10.0 mi SE 6.9 mph - N/A   Clear
4:52 AM 36.0 °F 29.6 °F 28.0 °F 73% 30.09 in 10.0 mi ESE 8.1 mph - N/A   Clear
5:52 AM 36.0 °F 29.6 °F 28.0 °F 73% 30.07 in 10.0 mi ESE 8.1 mph - N/A   Clear
6:52 AM 37.0 °F 31.0 °F 28.9 °F 73% 30.07 in 10.0 mi ESE 8.1 mph - N/A   Clear
7:52 AM 42.1 °F 37.7 °F 32.0 °F 67% 30.06 in 10.0 mi ESE 6.9 mph - N/A   Clear
8:52 AM 48.9 °F - 33.1 °F 54% 30.04 in 10.0 mi SE 11.5 mph - N/A   Clear
9:52 AM 55.9 °F - 33.1 °F 42% 30.00 in 10.0 mi SE 12.7 mph - N/A   Clear
10:52 AM 62.1 °F - 30.9 °F 31% 29.98 in 10.0 mi SSE 20.7 mph - N/A   Clear
11:52 AM 66.0 °F - 27.0 °F 23% 29.94 in 10.0 mi SE 24.2 mph 32.2 mph N/A   Clear
12:52 PM 64.0 °F - 28.9 °F 27% 29.92 in 10.0 mi SSE 24.2 mph 31.1 mph N/A   Mostly Cloudy
1:52 PM 68.0 °F - 28.9 °F 23% 29.88 in 10.0 mi SSE 26.5 mph 31.1 mph N/A   Clear
2:52 PM 68.0 °F - 30.0 °F 24% 29.85 in 10.0 mi SSE 23.0 mph - N/A   Clear
3:52 PM 69.1 °F - 28.9 °F 22% 29.83 in 10.0 mi SSE 26.5 mph 38.0 mph N/A   Clear
4:52 PM 66.0 °F - 28.9 °F 25% 29.80 in 10.0 mi SE 26.5 mph 38.0 mph N/A   Clear
5:52 PM 64.9 °F - 30.0 °F 27% 29.78 in 10.0 mi SE 28.8 mph 38.0 mph N/A   Clear
6:52 PM 64.0 °F - 30.0 °F 28% 29.77 in 10.0 mi ESE 27.6 mph 34.5 mph N/A   Clear
7:52 PM 61.0 °F - 28.9 °F 30% 29.75 in 10.0 mi ESE 28.8 mph 38.0 mph N/A   Clear
8:52 PM 59.0 °F - 28.9 °F 32% 29.73 in 10.0 mi ESE 24.2 mph 34.5 mph N/A   Partly Cloudy
9:52 PM 55.9 °F - 35.1 °F 45% 29.70 in 10.0 mi SE 26.5 mph 38.0 mph 0.00 in Rain Light Rain
10:52 PM 57.0 °F - 32.0 °F 39% 29.69 in 10.0 mi ESE 34.5 mph 47.2 mph 0.00 in   Overcast
11:52 PM 57.0 °F - 32.0 °F 39% 29.67 in 10.0 mi ESE 25.3 mph 41.4 mph N/A   Overcast